Clearfield, PA

6:50 AM EST on November 25, 2017 (GMT -0500)
Clearfield-Lawrence

Weather History for KFIG - November, 2013

Change the Weather History Date:

Wednesday, November 6, 2013

  Actual Average (KDUJ) Record (KDUJ)
Temperature  
Mean Temperature 48 °F -  
Max Temperature 66 °F 46 °F 73 °F (1975)
Min Temperature 30 °F 33 °F 19 °F (1967)
Degree Days  
Heating Degree Days 17    
Moisture  
Dew Point 40 °F    
Average Humidity 76    
Maximum Humidity 100    
Minimum Humidity 48    
Precipitation  
Precipitation 0.00 in - - ()
Sea Level Pressure  
Sea Level Pressure 30.19 in    
Wind  
Wind Speed 6 mph (SW)    
Max Wind Speed 12 mph    
Max Gust Speed 21 mph    
Visibility 9 miles    
Events      
Averages and records for this station are not official NWS values.
T = Trace of Precipitation, MM = Missing Value Source: NWS Daily Summary

Daily Weather History Graph

Daily Weather History Graph

Search for Another Location

Airport or City:

Trip Planner

Search our weather history database for the weather conditions in past years. The results will help you decide how hot, cold, wet, or windy it might be!

Date:

Astronomy

Nov. 06, 2013 Rise Set
Actual Time 6:50 AM EST 5:03 PM EST
Civil Twilight 6:21 AM EST 5:32 PM EST
Nautical Twilight 5:49 AM EST 6:04 PM EST
Astronomical Twilight 5:16 AM EST 6:37 PM EST
Moon 10:04 AM EST (11/6) 8:04 PM EST (11/6)
Length of Visible Light 11h 10m
Length of Day
10h 12m
Waxing Crescent, 13% of the Moon is Illuminated
Nov 6
Waxing Crescent
Nov 10
First Quarter
Nov 17
Full
Nov 25
Last Quarter
Dec 2
New

Hourly Weather History & Observations

Time (EST) Temp. Windchill Dew Point Humidity Pressure Visibility Wind Dir Wind Speed Gust Speed Precip Events Conditions
12:54 AM 34.0 °F 29.8 °F 32.0 °F 92% 30.41 in 10.0 mi North 4.6 mph - N/A   Clear
1:54 AM 32.0 °F 25.6 °F 32.0 °F 100% 30.39 in 10.0 mi North 6.9 mph - N/A   Clear
2:54 AM 30.9 °F 25.2 °F 30.9 °F 100% 30.37 in 10.0 mi North 5.8 mph - N/A   Clear
3:54 AM 33.1 °F 28.7 °F 33.1 °F 100% 30.35 in 10.0 mi NE 4.6 mph - N/A   Clear
4:54 AM 30.9 °F 25.2 °F 30.9 °F 100% 30.35 in 8.0 mi North 5.8 mph - N/A   Clear
5:54 AM 30.9 °F 24.3 °F 30.9 °F 100% 30.35 in 8.0 mi North 6.9 mph - N/A   Clear
6:29 AM 33.1 °F 27.7 °F 32.0 °F 96% 30.29 in 2.5 mi Variable 5.8 mph - N/A   Scattered Clouds
6:46 AM 30.9 °F 27.5 °F 30.9 °F 100% 30.29 in 3.0 mi NNW 3.5 mph - N/A   Scattered Clouds
6:54 AM 30.0 °F 25.2 °F 30.0 °F 100% 30.32 in 3.0 mi North 4.6 mph - N/A   Partly Cloudy
7:54 AM 36.0 °F - 35.1 °F 97% 30.33 in 6.0 mi Calm Calm - N/A   Clear
8:54 AM 41.0 °F 38.0 °F 39.0 °F 93% 30.30 in 10.0 mi North 4.6 mph - N/A   Clear
9:54 AM 48.0 °F - 43.0 °F 83% 30.27 in 10.0 mi Calm Calm - N/A   Clear
10:54 AM 53.1 °F - 44.1 °F 71% 30.25 in 10.0 mi Variable 3.5 mph - N/A   Partly Cloudy
11:54 AM 60.1 °F - 46.0 °F 60% 30.21 in 10.0 mi South 8.1 mph - N/A   Mostly Cloudy
12:54 PM 64.0 °F - 46.0 °F 52% 30.17 in 10.0 mi South 9.2 mph - N/A   Partly Cloudy
1:54 PM 66.0 °F - 46.0 °F 48% 30.13 in 10.0 mi South 11.5 mph 17.3 mph N/A   Partly Cloudy
2:54 PM 64.9 °F - 45.0 °F 48% 30.10 in 10.0 mi South 11.5 mph 20.7 mph N/A   Scattered Clouds
3:54 PM 64.0 °F - 46.0 °F 52% 30.08 in 10.0 mi South 10.4 mph - N/A   Mostly Cloudy
4:54 PM 62.1 °F - 46.0 °F 56% 30.06 in 9.0 mi Variable 6.9 mph - N/A   Overcast
5:54 PM 62.1 °F - 45.0 °F 53% 30.06 in 10.0 mi SSW 8.1 mph - N/A   Overcast
6:54 PM 60.1 °F - 46.0 °F 60% 30.05 in 10.0 mi South 6.9 mph - N/A   Mostly Cloudy
7:54 PM 60.1 °F - 46.9 °F 62% 30.02 in 10.0 mi SSW 5.8 mph - N/A   Overcast
8:54 PM 61.0 °F - 46.9 °F 60% 29.99 in 10.0 mi SSW 8.1 mph - N/A   Overcast
9:54 PM 60.1 °F - 46.9 °F 62% 29.96 in 10.0 mi South 9.2 mph - N/A   Overcast
10:54 PM 60.1 °F - 46.9 °F 62% 29.94 in 10.0 mi SSW 10.4 mph - N/A   Overcast
11:54 PM 59.0 °F - 46.9 °F 64% 29.93 in 10.0 mi NW 6.9 mph - N/A   Overcast